| time (UTC) | temp F | wind direction | speed MPH | gust MPH | rain 1hr in | rain 24hr in | rain mn in | humidity % | barometer mb |
| 20260508222525 | 65 | 178 | 3.0 | 7.0 | 0.00 | 0.00 | 0.00 | 25 | 1023.2 |
| 20260508222025 | 65 | 182 | 1.0 | 6.0 | 0.00 | 0.00 | 0.00 | 27 | 1023.3 |
| 20260508221545 | 65 | 186 | 3.0 | 7.0 | 0.00 | 0.00 | 0.00 | 25 | 1023.4 |
| 20260508221026 | 65 | 181 | 2.0 | 7.0 | 0.00 | 0.00 | 0.00 | 26 | 1023.4 |
| 20260508220524 | 65 | 182 | 2.0 | 7.0 | 0.00 | 0.00 | 0.00 | 25 | 1023.4 |
| 20260508220050 | 64 | 178 | 3.0 | 9.0 | 0.00 | 0.00 | 0.00 | 27 | 1023.4 |
| 20260508215527 | 64 | 173 | 3.0 | 9.0 | 0.00 | 0.00 | 0.00 | 25 | 1023.5 |
| 20260508215025 | 65 | 182 | 2.0 | 8.0 | 0.00 | 0.00 | 0.00 | 26 | 1023.5 |
| 20260508214545 | 65 | 183 | 3.0 | 8.0 | 0.00 | 0.00 | 0.00 | 25 | 1023.6 |
| 20260508214024 | 65 | 178 | 4.0 | 9.0 | 0.00 | 0.00 | 0.00 | 24 | 1023.5 |
| 20260508213526 | 65 | 186 | 3.0 | 9.0 | 0.00 | 0.00 | 0.00 | 24 | 1023.6 |
| 20260508213040 | 65 | 182 | 2.0 | 8.0 | 0.00 | 0.00 | 0.00 | 23 | 1023.6 |
| 20260508212524 | 64 | 182 | 4.0 | 8.0 | 0.00 | 0.00 | 0.00 | 22 | 1023.6 |
| 20260508212026 | 64 | 177 | 3.0 | 8.0 | 0.00 | 0.00 | 0.00 | 24 | 1023.7 |
| 20260508211545 | 64 | 190 | 4.0 | 10.0 | 0.00 | 0.00 | 0.00 | 23 | 1023.6 |
| 20260508211026 | 64 | 171 | 2.0 | 10.0 | 0.00 | 0.00 | 0.00 | 22 | 1023.7 |
| 20260508210525 | 64 | 172 | 3.0 | 6.0 | 0.00 | 0.00 | 0.00 | 21 | 1023.8 |
| 20260508210046 | 64 | 191 | 3.0 | 7.0 | 0.00 | 0.00 | 0.00 | 20 | 1023.8 |
| 20260508205524 | 64 | 189 | 3.0 | 8.0 | 0.00 | 0.00 | 0.00 | 20 | 1023.7 |
| 20260508205024 | 64 | 190 | 3.0 | 9.0 | 0.00 | 0.00 | 0.00 | 22 | 1023.7 |
| 20260508204545 | 64 | 185 | 4.0 | 9.0 | 0.00 | 0.00 | 0.00 | 21 | 1023.7 |
| 20260508204027 | 65 | 167 | 3.0 | 10.0 | 0.00 | 0.00 | 0.00 | 20 | 1023.7 |
| 20260508203525 | 64 | 182 | 2.0 | 10.0 | 0.00 | 0.00 | 0.00 | 22 | 1023.7 |
| 20260508203042 | 65 | 186 | 4.0 | 10.0 | 0.00 | 0.00 | 0.00 | 19 | 1023.8 |
| 20260508202525 | 65 | 180 | 2.0 | 6.0 | 0.00 | 0.00 | 0.00 | 21 | 1023.7 |
| 20260508202025 | 64 | 180 | 2.0 | 6.0 | 0.00 | 0.00 | 0.00 | 21 | 1023.9 |
| 20260508201538 | 64 | 178 | 2.0 | 6.0 | 0.00 | 0.00 | 0.00 | 22 | 1023.9 |
| 20260508201026 | 64 | 178 | 3.0 | 6.0 | 0.00 | 0.00 | 0.00 | 21 | 1023.9 |
| 20260508200524 | 64 | 184 | 2.0 | 6.0 | 0.00 | 0.00 | 0.00 | 21 | 1024.0 |
| 20260508200039 | 64 | 190 | 1.0 | 6.0 | 0.00 | 0.00 | 0.00 | 23 | 1024.0 |
| 20260508195525 | 62 | 191 | 2.0 | 6.0 | 0.00 | 0.00 | 0.00 | 22 | 1024.1 |
| 20260508195025 | 62 | 181 | 3.0 | 7.0 | 0.00 | 0.00 | 0.00 | 21 | 1024.2 |
| 20260508194600 | 63 | 178 | 3.0 | 7.0 | 0.00 | 0.00 | 0.00 | 20 | 1024.0 |
| 20260508194025 | 63 | 190 | 2.0 | 6.0 | 0.00 | 0.00 | 0.00 | 22 | 1024.1 |
| 20260508193524 | 62 | 188 | 1.0 | 7.0 | 0.00 | 0.00 | 0.00 | 22 | 1024.2 |
| 20260508193042 | 62 | 180 | 3.0 | 7.0 | 0.00 | 0.00 | 0.00 | 21 | 1024.2 |
| 20260508192524 | 61 | 174 | 3.0 | 7.0 | 0.00 | 0.00 | 0.00 | 21 | 1024.2 |
| 20260508192025 | 62 | 162 | 3.0 | 7.0 | 0.00 | 0.00 | 0.00 | 20 | 1024.2 |
| 20260508191547 | 62 | 0 | 2.0 | 6.0 | 0.00 | 0.00 | 0.00 | 22 | 1024.2 |
| 20260508191026 | 61 | 187 | 2.0 | 6.0 | 0.00 | 0.00 | 0.00 | 22 | 1024.2 |
| 20260508190526 | 60 | 184 | 2.0 | 6.0 | 0.00 | 0.00 | 0.00 | 22 | 1024.3 |
| 20260508185525 | 59 | 188 | 1.0 | 5.0 | 0.00 | 0.00 | 0.00 | 23 | 1024.5 |
| 20260508185027 | 59 | 189 | 1.0 | 5.0 | 0.00 | 0.00 | 0.00 | 21 | 1024.5 |
| 20260508184543 | 60 | 188 | 2.0 | 5.0 | 0.00 | 0.00 | 0.00 | 20 | 1024.5 |
| 20260508184025 | 61 | 189 | 2.0 | 4.0 | 0.00 | 0.00 | 0.00 | 21 | 1024.6 |
| 20260508183525 | 61 | 191 | 2.0 | 5.0 | 0.00 | 0.00 | 0.00 | 22 | 1024.5 |
| 20260508183045 | 60 | 191 | 2.0 | 8.0 | 0.00 | 0.00 | 0.00 | 21 | 1024.6 |
| 20260508182524 | 60 | 192 | 3.0 | 8.0 | 0.00 | 0.00 | 0.00 | 22 | 1024.6 |
| 20260508182025 | 60 | 173 | 2.0 | 7.0 | 0.00 | 0.00 | 0.00 | 24 | 1024.6 |
| 20260508181548 | 59 | 0 | 3.0 | 7.0 | 0.00 | 0.00 | 0.00 | 23 | 1024.5 |
| 20260508181025 | 59 | 178 | 2.0 | 6.0 | 0.00 | 0.00 | 0.00 | 22 | 1024.6 |
| 20260508180525 | 59 | 175 | 2.0 | 6.0 | 0.00 | 0.00 | 0.00 | 25 | 1024.7 |
| 20260508180043 | 58 | 188 | 2.0 | 7.0 | 0.00 | 0.00 | 0.00 | 27 | 1024.6 |
| 20260508175525 | 58 | 0 | 3.0 | 7.0 | 0.00 | 0.00 | 0.00 | 26 | 1024.6 |
| 20260508175025 | 58 | 173 | 2.0 | 7.0 | 0.00 | 0.00 | 0.00 | 28 | 1024.5 |
| 20260508174541 | 58 | 184 | 2.0 | 6.0 | 0.00 | 0.00 | 0.00 | 31 | 1024.5 |
| 20260508174026 | 57 | 184 | 3.0 | 7.0 | 0.00 | 0.00 | 0.00 | 30 | 1024.6 |
| 20260508173526 | 57 | 188 | 3.0 | 7.0 | 0.00 | 0.00 | 0.00 | 35 | 1024.6 |
| 20260508173045 | 57 | 232 | 2.0 | 5.0 | 0.00 | 0.00 | 0.00 | 33 | 1024.6 |
| 20260508172527 | 57 | 242 | 2.0 | 5.0 | 0.00 | 0.00 | 0.00 | 36 | 1024.7 |
| 20260508172026 | 57 | 244 | 2.0 | 5.0 | 0.00 | 0.00 | 0.00 | 31 | 1024.5 |
| 20260508171546 | 57 | 244 | 2.0 | 6.0 | 0.00 | 0.00 | 0.00 | 40 | 1024.6 |
| 20260508171025 | 57 | 245 | 2.0 | 6.0 | 0.00 | 0.00 | 0.00 | 35 | 1024.5 |
| 20260508170525 | 58 | 265 | 2.0 | 6.0 | 0.00 | 0.00 | 0.00 | 36 | 1024.6 |
| 20260508170044 | 57 | 267 | 1.0 | 6.0 | 0.00 | 0.00 | 0.00 | 43 | 1024.6 |
| 20260508165526 | 57 | 267 | 2.0 | 6.0 | 0.00 | 0.00 | 0.00 | 46 | 1024.5 |
| 20260508165024 | 56 | 269 | 1.0 | 4.0 | 0.00 | 0.00 | 0.00 | 50 | 1024.4 |
| 20260508164544 | 56 | 269 | 2.0 | 6.0 | 0.00 | 0.00 | 0.00 | 47 | 1024.4 |
| 20260508164025 | 55 | 269 | 2.0 | 6.0 | 0.00 | 0.00 | 0.00 | 54 | 1024.4 |
| 20260508163526 | 55 | 275 | 2.0 | 4.0 | 0.00 | 0.00 | 0.00 | 51 | 1024.4 |
| 20260508163056 | 55 | 278 | 2.0 | 4.0 | 0.00 | 0.00 | 0.00 | 49 | 1024.5 |
| 20260508162529 | 55 | 294 | 2.0 | 4.0 | 0.00 | 0.00 | 0.00 | 52 | 1024.5 |
| 20260508162024 | 55 | 330 | 2.0 | 5.0 | 0.00 | 0.00 | 0.00 | 49 | 1024.4 |
| 20260508161554 | 54 | 330 | 2.0 | 5.0 | 0.00 | 0.00 | 0.00 | 53 | 1024.4 |
| 20260508161025 | 54 | 329 | 1.0 | 4.0 | 0.00 | 0.00 | 0.00 | 49 | 1024.4 |
| 20260508160525 | 54 | 330 | 1.0 | 5.0 | 0.00 | 0.00 | 0.00 | 53 | 1024.5 |
| 20260508160044 | 54 | 330 | 2.0 | 5.0 | 0.00 | 0.00 | 0.00 | 52 | 1024.5 |
| 20260508155524 | 54 | 332 | 1.0 | 4.0 | 0.00 | 0.00 | 0.00 | 51 | 1024.5 |
| 20260508155024 | 54 | 332 | 2.0 | 4.0 | 0.00 | 0.00 | 0.00 | 52 | 1024.3 |
| 20260508154544 | 54 | 336 | 1.0 | 3.0 | 0.00 | 0.00 | 0.00 | 52 | 1024.4 |
| 20260508154029 | 54 | 336 | 2.0 | 3.0 | 0.00 | 0.00 | 0.00 | 52 | 1024.4 |
| 20260508153526 | 54 | 336 | 1.0 | 4.0 | 0.00 | 0.00 | 0.00 | 52 | 1024.4 |
| 20260508153055 | 53 | 336 | 1.0 | 4.0 | 0.00 | 0.00 | 0.00 | 51 | 1024.4 |
| 20260508152526 | 54 | 336 | 1.0 | 4.0 | 0.00 | 0.00 | 0.00 | 49 | 1024.4 |
| 20260508152025 | 54 | 336 | 1.0 | 4.0 | 0.00 | 0.00 | 0.00 | 50 | 1024.4 |
| 20260508151536 | 54 | 336 | 2.0 | 4.0 | 0.00 | 0.00 | 0.00 | 48 | 1024.3 |
| 20260508151028 | 55 | 336 | 1.0 | 2.0 | 0.00 | 0.00 | 0.00 | 49 | 1024.4 |
| 20260508150526 | 54 | 336 | 0.0 | 3.0 | 0.00 | 0.00 | 0.00 | 48 | 1024.3 |
| 20260508150046 | 54 | 336 | 0.0 | 3.0 | 0.00 | 0.00 | 0.00 | 49 | 1024.3 |
| 20260508145526 | 53 | 0 | 1.0 | 3.0 | 0.00 | 0.00 | 0.00 | 47 | 1024.2 |
| 20260508145024 | 52 | 0 | 0.0 | 2.0 | 0.00 | 0.00 | 0.00 | 49 | 1024.2 |
| 20260508144544 | 52 | 0 | 0.0 | 2.0 | 0.00 | 0.00 | 0.00 | 50 | 1024.2 |
| 20260508144026 | 51 | 336 | 0.0 | 3.0 | 0.00 | 0.00 | 0.00 | 47 | 1024.1 |
| 20260508143525 | 51 | 336 | 0.0 | 3.0 | 0.00 | 0.00 | 0.00 | 46 | 1024.2 |
| 20260508143102 | 51 | 336 | 1.0 | 2.0 | 0.00 | 0.00 | 0.00 | 47 | 1024.0 |
| 20260508142525 | 50 | 336 | 1.0 | 2.0 | 0.00 | 0.00 | 0.00 | 48 | 1024.1 |
| 20260508142024 | 49 | 336 | 0.0 | 2.0 | 0.00 | 0.00 | 0.00 | 51 | 1024.1 |
| 20260508141541 | 47 | 0 | 0.0 | 2.0 | 0.00 | 0.00 | 0.00 | 50 | 1024.1 |
| 20260508141025 | 47 | 336 | 0.0 | 2.0 | 0.00 | 0.00 | 0.00 | 49 | 1024.0 |
| 20260508140525 | 46 | 0 | 0.0 | 2.0 | 0.00 | 0.00 | 0.00 | 50 | 1023.9 |
| 20260508140039 | 45 | 0 | 0.0 | 3.0 | 0.00 | 0.00 | 0.00 | 49 | 1023.9 |
| 20260508135524 | 45 | 336 | 0.0 | 3.0 | 0.00 | 0.00 | 0.00 | 47 | 1023.8 |
| 20260508135026 | 44 | 336 | 1.0 | 3.0 | 0.00 | 0.00 | 0.00 | 46 | 1023.9 |
| 20260508134545 | 44 | 336 | 1.0 | 3.0 | 0.00 | 0.00 | 0.00 | 46 | 1023.8 |
| 20260508134024 | 43 | 336 | 0.0 | 3.0 | 0.00 | 0.00 | 0.00 | 45 | 1023.8 |
| 20260508133526 | 43 | 336 | 1.0 | 3.0 | 0.00 | 0.00 | 0.00 | 50 | 1023.8 |
| 20260508133044 | 43 | 0 | 1.0 | 3.0 | 0.00 | 0.00 | 0.00 | 43 | 1023.9 |
| 20260508132524 | 43 | 336 | 1.0 | 3.0 | 0.00 | 0.00 | 0.00 | 47 | 1023.8 |
| 20260508132024 | 43 | 0 | 1.0 | 3.0 | 0.00 | 0.00 | 0.00 | 51 | 1023.8 |
| 20260508131542 | 43 | 336 | 1.0 | 3.0 | 0.00 | 0.00 | 0.00 | 49 | 1023.7 |
| 20260508131024 | 43 | 336 | 1.0 | 3.0 | 0.00 | 0.00 | 0.00 | 48 | 1023.7 |
| 20260508130526 | 43 | 336 | 0.0 | 2.0 | 0.00 | 0.00 | 0.00 | 49 | 1023.7 |
| 20260508130040 | 43 | 336 | 1.0 | 2.0 | 0.00 | 0.00 | 0.00 | 50 | 1023.7 |
| 20260508125525 | 43 | 336 | 1.0 | 2.0 | 0.00 | 0.00 | 0.00 | 57 | 1023.7 |
| 20260508125024 | 43 | 336 | 1.0 | 2.0 | 0.00 | 0.00 | 0.00 | 59 | 1023.7 |
| 20260508124543 | 43 | 336 | 1.0 | 2.0 | 0.00 | 0.00 | 0.00 | 51 | 1023.7 |
| 20260508124024 | 43 | 336 | 1.0 | 2.0 | 0.00 | 0.00 | 0.00 | 47 | 1023.7 |
| 20260508123526 | 42 | 336 | 1.0 | 2.0 | 0.00 | 0.00 | 0.00 | 45 | 1023.6 |
| 20260508123047 | 42 | 336 | 1.0 | 3.0 | 0.00 | 0.00 | 0.00 | 48 | 1023.7 |
| 20260508122524 | 42 | 336 | 1.0 | 3.0 | 0.00 | 0.00 | 0.00 | 51 | 1023.6 |
| 20260508122024 | 43 | 336 | 1.0 | 3.0 | 0.00 | 0.00 | 0.00 | 52 | 1023.5 |
| 20260508121546 | 43 | 336 | 1.0 | 2.0 | 0.00 | 0.00 | 0.00 | 53 | 1023.5 |
| 20260508121026 | 43 | 336 | 1.0 | 2.0 | 0.00 | 0.00 | 0.00 | 53 | 1023.5 |
| 20260508120524 | 43 | 336 | 0.0 | 2.0 | 0.00 | 0.00 | 0.00 | 55 | 1023.5 |
| 20260508120051 | 43 | 336 | 1.0 | 3.0 | 0.00 | 0.00 | 0.00 | 58 | 1023.5 |
| 20260508115526 | 43 | 336 | 1.0 | 3.0 | 0.00 | 0.00 | 0.00 | 59 | 1023.5 |
| 20260508115027 | 43 | 336 | 1.0 | 2.0 | 0.00 | 0.00 | 0.00 | 57 | 1023.5 |
| 20260508114547 | 43 | 336 | 1.0 | 2.0 | 0.00 | 0.00 | 0.00 | 57 | 1023.5 |
| 20260508114026 | 43 | 336 | 1.0 | 2.0 | 0.00 | 0.00 | 0.00 | 59 | 1023.6 |
| 20260508113525 | 43 | 336 | 1.0 | 3.0 | 0.00 | 0.00 | 0.00 | 60 | 1023.6 |
| 20260508113045 | 43 | 336 | 0.0 | 3.0 | 0.00 | 0.00 | 0.00 | 63 | 1023.6 |
| 20260508112526 | 43 | 336 | 1.0 | 3.0 | 0.00 | 0.00 | 0.00 | 57 | 1023.5 |
| 20260508112024 | 43 | 336 | 1.0 | 3.0 | 0.00 | 0.00 | 0.00 | 56 | 1023.6 |
| 20260508111543 | 43 | 336 | 1.0 | 2.0 | 0.00 | 0.00 | 0.00 | 53 | 1023.6 |
| 20260508111026 | 44 | 336 | 1.0 | 2.0 | 0.00 | 0.00 | 0.00 | 55 | 1023.5 |
| 20260508110525 | 44 | 336 | 1.0 | 3.0 | 0.00 | 0.00 | 0.00 | 56 | 1023.7 |
| 20260508110040 | 44 | 336 | 1.0 | 3.0 | 0.00 | 0.00 | 0.00 | 54 | 1023.6 |
| 20260508105525 | 44 | 336 | 1.0 | 3.0 | 0.00 | 0.00 | 0.00 | 51 | 1023.5 |
| 20260508105025 | 44 | 336 | 1.0 | 3.0 | 0.00 | 0.00 | 0.00 | 49 | 1023.6 |
| 20260508104545 | 44 | 336 | 1.0 | 3.0 | 0.00 | 0.00 | 0.00 | 49 | 1023.6 |
| 20260508104024 | 44 | 336 | 1.0 | 3.0 | 0.00 | 0.00 | 0.00 | 49 | 1023.5 |
| 20260508103525 | 44 | 336 | 1.0 | 2.0 | 0.00 | 0.00 | 0.00 | 48 | 1023.6 |
| 20260508103045 | 45 | 0 | 1.0 | 2.0 | 0.00 | 0.00 | 0.00 | 47 | 1023.6 |
| 20260508102523 | 45 | 336 | 1.0 | 2.0 | 0.00 | 0.00 | 0.00 | 44 | 1023.6 |
| 20260508102026 | 45 | 336 | 0.0 | 2.0 | 0.00 | 0.00 | 0.00 | 43 | 1023.6 |
| 20260508101541 | 45 | 336 | 1.0 | 2.0 | 0.00 | 0.00 | 0.00 | 44 | 1023.6 |
| 20260508101026 | 45 | 336 | 1.0 | 2.0 | 0.00 | 0.00 | 0.00 | 44 | 1023.5 |
| 20260508100525 | 45 | 336 | 1.0 | 2.0 | 0.00 | 0.00 | 0.00 | 43 | 1023.5 |
| 20260508100057 | 45 | 336 | 1.0 | 3.0 | 0.00 | 0.00 | 0.00 | 46 | 1023.6 |
| 20260508095527 | 45 | 336 | 1.0 | 3.0 | 0.00 | 0.00 | 0.00 | 51 | 1023.6 |
| 20260508095025 | 45 | 336 | 1.0 | 3.0 | 0.00 | 0.00 | 0.00 | 51 | 1023.7 |
| 20260508094545 | 45 | 336 | 1.0 | 3.0 | 0.00 | 0.00 | 0.00 | 49 | 1023.7 |
| 20260508094024 | 45 | 336 | 1.0 | 3.0 | 0.00 | 0.00 | 0.00 | 49 | 1023.5 |
| 20260508093526 | 46 | 336 | 1.0 | 3.0 | 0.00 | 0.00 | 0.00 | 50 | 1023.6 |
| 20260508093045 | 46 | 336 | 1.0 | 3.0 | 0.00 | 0.00 | 0.00 | 50 | 1023.6 |
| 20260508092526 | 46 | 336 | 1.0 | 3.0 | 0.00 | 0.00 | 0.00 | 48 | 1023.6 |
| 20260508092025 | 46 | 336 | 1.0 | 4.0 | 0.00 | 0.00 | 0.00 | 45 | 1023.7 |
| 20260508091602 | 46 | 336 | 2.0 | 4.0 | 0.00 | 0.00 | 0.00 | 43 | 1023.6 |
| 20260508091024 | 46 | 336 | 1.0 | 3.0 | 0.00 | 0.00 | 0.00 | 42 | 1023.7 |
| 20260508090525 | 46 | 336 | 1.0 | 3.0 | 0.00 | 0.00 | 0.00 | 43 | 1023.7 |
| 20260508090043 | 46 | 336 | 1.0 | 3.0 | 0.00 | 0.00 | 0.00 | 42 | 1023.6 |
| 20260508085525 | 46 | 336 | 2.0 | 3.0 | 0.00 | 0.00 | 0.00 | 42 | 1023.5 |
| 20260508085023 | 46 | 336 | 1.0 | 2.0 | 0.00 | 0.00 | 0.00 | 42 | 1023.7 |
| 20260508084544 | 46 | 336 | 1.0 | 2.0 | 0.00 | 0.00 | 0.00 | 42 | 1023.6 |
| 20260508084024 | 46 | 336 | 1.0 | 2.0 | 0.00 | 0.00 | 0.00 | 42 | 1023.7 |
| 20260508083523 | 47 | 336 | 1.0 | 2.0 | 0.00 | 0.00 | 0.00 | 42 | 1023.7 |
| 20260508083044 | 47 | 336 | 1.0 | 3.0 | 0.00 | 0.00 | 0.00 | 43 | 1023.7 |
| 20260508082524 | 47 | 336 | 1.0 | 3.0 | 0.00 | 0.00 | 0.00 | 42 | 1023.9 |
| 20260508082025 | 47 | 336 | 1.0 | 2.0 | 0.00 | 0.00 | 0.00 | 41 | 1023.9 |
| 20260508081554 | 48 | 336 | 1.0 | 3.0 | 0.00 | 0.00 | 0.00 | 41 | 1023.9 |
| 20260508081027 | 48 | 336 | 1.0 | 4.0 | 0.00 | 0.00 | 0.00 | 40 | 1024.0 |
| 20260508080525 | 48 | 336 | 1.0 | 4.0 | 0.00 | 0.00 | 0.00 | 39 | 1024.0 |
| 20260508080042 | 48 | 336 | 2.0 | 4.0 | 0.00 | 0.00 | 0.00 | 39 | 1024.1 |
| 20260508075525 | 48 | 336 | 2.0 | 4.0 | 0.00 | 0.00 | 0.00 | 39 | 1024.1 |
| 20260508075024 | 48 | 336 | 2.0 | 4.0 | 0.00 | 0.00 | 0.00 | 41 | 1024.2 |
| 20260508074545 | 48 | 336 | 2.0 | 4.0 | 0.00 | 0.00 | 0.00 | 41 | 1024.2 |
| 20260508074025 | 48 | 336 | 2.0 | 4.0 | 0.00 | 0.00 | 0.00 | 42 | 1024.2 |
| 20260508073523 | 48 | 336 | 2.0 | 3.0 | 0.00 | 0.00 | 0.00 | 42 | 1024.3 |
| 20260508073047 | 48 | 336 | 1.0 | 4.0 | 0.00 | 0.00 | 0.00 | 42 | 1024.3 |
| 20260508072523 | 48 | 336 | 2.0 | 4.0 | 0.00 | 0.00 | 0.00 | 42 | 1024.3 |
| 20260508072026 | 48 | 336 | 2.0 | 4.0 | 0.00 | 0.00 | 0.00 | 41 | 1024.3 |
| 20260508071543 | 48 | 336 | 2.0 | 4.0 | 0.00 | 0.00 | 0.00 | 40 | 1024.3 |
| 20260508071025 | 48 | 336 | 2.0 | 4.0 | 0.00 | 0.00 | 0.00 | 39 | 1024.4 |
| 20260508070524 | 48 | 336 | 2.0 | 4.0 | 0.00 | 0.00 | 0.00 | 39 | 1024.4 |
| 20260508070045 | 47 | 217 | 2.0 | 4.0 | 0.00 | 0.00 | 0.00 | 38 | 1024.4 |
| 20260508065524 | 47 | 211 | 2.0 | 4.0 | 0.00 | 0.00 | 0.00 | 38 | 1024.4 |
| 20260508065023 | 47 | 211 | 3.0 | 4.0 | 0.00 | 0.00 | 0.00 | 38 | 1024.4 |
| 20260508064538 | 47 | 211 | 2.0 | 4.0 | 0.00 | 0.00 | 0.00 | 36 | 1024.4 |
| 20260508064024 | 48 | 211 | 1.0 | 3.0 | 0.00 | 0.00 | 0.00 | 35 | 1024.5 |
| 20260508063524 | 48 | 211 | 1.0 | 4.0 | 0.00 | 0.00 | 0.00 | 36 | 1024.5 |
| 20260508063050 | 48 | 211 | 1.0 | 4.0 | 0.00 | 0.00 | 0.00 | 36 | 1024.6 |
| 20260508062526 | 48 | 211 | 2.0 | 4.0 | 0.00 | 0.00 | 0.00 | 36 | 1024.6 |
| 20260508062024 | 48 | 211 | 2.0 | 4.0 | 0.00 | 0.00 | 0.00 | 37 | 1024.6 |
| 20260508061543 | 49 | 211 | 1.0 | 3.0 | 0.00 | 0.00 | 0.00 | 39 | 1024.6 |
| 20260508061024 | 49 | 211 | 2.0 | 4.0 | 0.00 | 0.00 | 0.00 | 37 | 1024.6 |
| 20260508060526 | 49 | 211 | 2.0 | 4.0 | 0.00 | 0.00 | 0.00 | 39 | 1024.6 |
| 20260508060056 | 48 | 211 | 2.0 | 4.0 | 0.00 | 0.00 | 0.00 | 42 | 1024.6 |
| 20260508055524 | 49 | 211 | 2.0 | 4.0 | 0.00 | 0.00 | 0.00 | 42 | 1024.6 |
| 20260508055025 | 49 | 211 | 2.0 | 4.0 | 0.00 | 0.00 | 0.00 | 43 | 1024.7 |
| 20260508054613 | 49 | 211 | 3.0 | 4.0 | 0.00 | 0.00 | 0.00 | 45 | 1024.8 |
| 20260508054026 | 49 | 209 | 3.0 | 4.0 | 0.00 | 0.00 | 0.00 | 46 | 1024.8 |
| 20260508053525 | 49 | 209 | 3.0 | 4.0 | 0.00 | 0.00 | 0.00 | 46 | 1024.7 |
| 20260508053049 | 49 | 209 | 2.0 | 4.0 | 0.00 | 0.00 | 0.00 | 47 | 1024.7 |
| 20260508052527 | 49 | 209 | 2.0 | 4.0 | 0.00 | 0.00 | 0.00 | 47 | 1024.7 |
| 20260508052025 | 49 | 208 | 1.0 | 4.0 | 0.00 | 0.00 | 0.00 | 48 | 1024.6 |
| 20260508051537 | 49 | 208 | 2.0 | 4.0 | 0.00 | 0.00 | 0.00 | 47 | 1024.7 |
| 20260508051027 | 49 | 208 | 2.0 | 4.0 | 0.00 | 0.00 | 0.00 | 47 | 1024.7 |
| 20260508050528 | 49 | 208 | 2.0 | 3.0 | 0.00 | 0.00 | 0.00 | 47 | 1024.8 |
| 20260508050043 | 50 | 208 | 1.0 | 2.0 | 0.00 | 0.00 | 0.00 | 48 | 1024.8 |
| 20260508045527 | 50 | 208 | 1.0 | 4.0 | 0.00 | 0.00 | 0.00 | 48 | 1024.8 |
| 20260508045027 | 50 | 208 | 1.0 | 4.0 | 0.00 | 0.00 | 0.00 | 48 | 1024.9 |
| 20260508044540 | 50 | 208 | 2.0 | 4.0 | 0.00 | 0.00 | 0.00 | 49 | 1024.9 |
| 20260508044026 | 51 | 208 | 2.0 | 3.0 | 0.00 | 0.00 | 0.00 | 50 | 1024.9 |
| 20260508043526 | 51 | 208 | 2.0 | 3.0 | 0.00 | 0.00 | 0.00 | 49 | 1024.9 |
| 20260508043049 | 51 | 207 | 2.0 | 3.0 | 0.00 | 0.00 | 0.00 | 52 | 1024.8 |
| 20260508042524 | 51 | 207 | 2.0 | 3.0 | 0.00 | 0.00 | 0.00 | 52 | 1024.8 |
| 20260508042025 | 51 | 207 | 2.0 | 3.0 | 0.00 | 0.00 | 0.00 | 53 | 1024.7 |
| 20260508041545 | 51 | 207 | 1.0 | 3.0 | 0.00 | 0.00 | 0.00 | 53 | 1024.6 |
| 20260508041027 | 52 | 207 | 1.0 | 2.0 | 0.00 | 0.00 | 0.00 | 54 | 1024.5 |
| 20260508040527 | 52 | 207 | 1.0 | 2.0 | 0.00 | 0.00 | 0.00 | 56 | 1024.4 |
| 20260508040047 | 52 | 207 | 1.0 | 2.0 | 0.00 | 0.00 | 0.00 | 57 | 1024.2 |
| 20260508035527 | 52 | 207 | 1.0 | 2.0 | 0.00 | 0.00 | 0.00 | 61 | 1024.0 |
| 20260508035026 | 52 | 0 | 0.0 | 2.0 | 0.00 | 0.00 | 0.00 | 60 | 1024.0 |
| 20260508034548 | 53 | 0 | 0.0 | 3.0 | 0.00 | 0.00 | 0.00 | 60 | 1023.9 |
| 20260508034026 | 53 | 0 | 1.0 | 3.0 | 0.00 | 0.00 | 0.00 | 60 | 1023.7 |
| 20260508033526 | 53 | 207 | 1.0 | 3.0 | 0.00 | 0.00 | 0.00 | 60 | 1023.7 |
| 20260508033041 | 53 | 0 | 0.0 | 2.0 | 0.00 | 0.00 | 0.00 | 60 | 1023.7 |
| 20260508032526 | 53 | 0 | 0.0 | 2.0 | 0.00 | 0.00 | 0.00 | 58 | 1023.6 |
| 20260508032027 | 54 | 0 | 0.0 | 2.0 | 0.00 | 0.00 | 0.00 | 58 | 1023.5 |
| 20260508031546 | 54 | 207 | 0.0 | 4.0 | 0.00 | 0.00 | 0.00 | 57 | 1023.4 |
| 20260508031026 | 54 | 0 | 1.0 | 4.0 | 0.00 | 0.00 | 0.00 | 55 | 1023.4 |
| 20260508030526 | 54 | 0 | 0.0 | 4.0 | 0.00 | 0.00 | 0.00 | 53 | 1023.2 |
| 20260508030046 | 55 | 189 | 1.0 | 4.0 | 0.00 | 0.00 | 0.00 | 52 | 1023.3 |
| 20260508025527 | 55 | 0 | 1.0 | 4.0 | 0.00 | 0.00 | 0.00 | 50 | 1023.3 |
| 20260508025027 | 55 | 189 | 0.0 | 3.0 | 0.00 | 0.00 | 0.00 | 48 | 1023.2 |
| 20260508024556 | 55 | 0 | 0.0 | 3.0 | 0.00 | 0.00 | 0.00 | 48 | 1023.1 |
| 20260508024027 | 56 | 189 | 0.0 | 3.0 | 0.00 | 0.00 | 0.00 | 46 | 1023.0 |
| 20260508023526 | 56 | 189 | 1.0 | 3.0 | 0.00 | 0.00 | 0.00 | 45 | 1022.9 |
| 20260508023039 | 57 | 189 | 1.0 | 3.0 | 0.00 | 0.00 | 0.00 | 42 | 1022.9 |
| 20260508022531 | 57 | 0 | 0.0 | 4.0 | 0.00 | 0.00 | 0.00 | 41 | 1022.9 |
| 20260508022027 | 57 | 0 | 1.0 | 4.0 | 0.00 | 0.00 | 0.00 | 40 | 1022.9 |
| 20260508021545 | 58 | 189 | 0.0 | 4.0 | 0.00 | 0.00 | 0.00 | 38 | 1022.9 |
| 20260508021031 | 58 | 189 | 0.0 | 4.0 | 0.00 | 0.00 | 0.00 | 38 | 1022.9 |
| 20260508020552 | 58 | 196 | 0.0 | 4.0 | 0.00 | 0.00 | 0.00 | 37 | 1022.8 |
| 20260508020051 | 59 | 196 | 2.0 | 5.0 | 0.00 | 0.00 | 0.00 | 36 | 1022.8 |
| 20260508015526 | 59 | 200 | 2.0 | 7.0 | 0.00 | 0.00 | 0.00 | 37 | 1022.9 |
| 20260508015026 | 59 | 192 | 1.0 | 7.0 | 0.00 | 0.00 | 0.00 | 36 | 1022.8 |
| 20260508014544 | 59 | 225 | 2.0 | 7.0 | 0.00 | 0.00 | 0.00 | 36 | 1022.8 |
| 20260508014027 | 59 | 258 | 0.0 | 7.0 | 0.00 | 0.00 | 0.00 | 37 | 1022.9 |
| 20260508013526 | 59 | 240 | 1.0 | 9.0 | 0.00 | 0.00 | 0.00 | 36 | 1022.8 |
| 20260508013043 | 60 | 231 | 2.0 | 9.0 | 0.00 | 0.00 | 0.00 | 37 | 1022.7 |
| 20260508012526 | 60 | 275 | 1.0 | 4.0 | 0.00 | 0.00 | 0.00 | 39 | 1022.7 |
| 20260508012026 | 60 | 250 | 1.0 | 7.0 | 0.00 | 0.00 | 0.00 | 40 | 1022.7 |
| 20260508011540 | 60 | 249 | 0.0 | 7.0 | 0.00 | 0.00 | 0.00 | 40 | 1022.7 |
| 20260508011026 | 60 | 0 | 1.0 | 8.0 | 0.00 | 0.00 | 0.00 | 40 | 1022.7 |
| 20260508010526 | 60 | 175 | 2.0 | 8.0 | 0.00 | 0.00 | 0.00 | 38 | 1022.7 |
| 20260508010051 | 60 | 191 | 2.0 | 8.0 | 0.00 | 0.00 | 0.00 | 43 | 1022.7 |
| 20260508005526 | 60 | 0 | 1.0 | 7.0 | 0.00 | 0.00 | 0.00 | 42 | 1022.7 |
| 20260508005026 | 60 | 194 | 2.0 | 8.0 | 0.00 | 0.00 | 0.00 | 42 | 1022.7 |
| 20260508004547 | 60 | 197 | 2.0 | 13.0 | 0.00 | 0.00 | 0.00 | 42 | 1022.6 |
| 20260508004025 | 60 | 173 | 2.0 | 14.0 | 0.00 | 0.00 | 0.00 | 43 | 1022.7 |
| 20260508003526 | 61 | 149 | 3.0 | 15.0 | 0.00 | 0.00 | 0.00 | 42 | 1022.7 |
| 20260508003043 | 61 | 192 | 4.0 | 15.0 | 0.00 | 0.00 | 0.00 | 41 | 1022.7 |
| 20260508002526 | 62 | 259 | 3.0 | 9.0 | 0.00 | 0.00 | 0.00 | 40 | 1022.7 |
| 20260508002024 | 62 | 0 | 2.0 | 9.0 | 0.00 | 0.00 | 0.00 | 38 | 1022.7 |
| 20260508001545 | 62 | 289 | 1.0 | 9.0 | 0.00 | 0.00 | 0.00 | 38 | 1022.7 |
| 20260508001027 | 62 | 183 | 3.0 | 11.0 | 0.00 | 0.00 | 0.00 | 36 | 1022.7 |
| 20260508000529 | 62 | 277 | 4.0 | 11.0 | 0.00 | 0.00 | 0.00 | 35 | 1022.7 |
| 20260508000041 | 63 | 175 | 4.0 | 11.0 | 0.00 | 0.00 | 0.00 | 34 | 1022.6 |
| 20260507235527 | 63 | 165 | 4.0 | 11.0 | 0.00 | 0.00 | 0.00 | 35 | 1022.6 |
| 20260507235027 | 64 | 177 | 4.0 | 11.0 | 0.00 | 0.00 | 0.00 | 35 | 1022.6 |
| 20260507234546 | 64 | 170 | 2.0 | 15.0 | 0.00 | 0.00 | 0.00 | 35 | 1022.7 |
| 20260507234026 | 64 | 215 | 3.0 | 15.0 | 0.00 | 0.00 | 0.00 | 35 | 1022.7 |
| 20260507233527 | 64 | 178 | 5.0 | 15.0 | 0.00 | 0.00 | 0.00 | 35 | 1022.7 |
| 20260507233046 | 64 | 315 | 2.0 | 10.0 | 0.00 | 0.00 | 0.00 | 35 | 1022.8 |
| 20260507232525 | 65 | 171 | 4.0 | 13.0 | 0.00 | 0.00 | 0.00 | 32 | 1022.7 |
| 20260507232026 | 65 | 42 | 3.0 | 13.0 | 0.00 | 0.00 | 0.00 | 34 | 1022.7 |
| 20260507231548 | 65 | 185 | 2.0 | 12.0 | 0.00 | 0.00 | 0.00 | 33 | 1022.7 |
| 20260507231026 | 65 | 205 | 4.0 | 12.0 | 0.00 | 0.00 | 0.00 | 32 | 1022.7 |
| 20260507230527 | 65 | 246 | 3.0 | 15.0 | 0.00 | 0.00 | 0.00 | 33 | 1022.7 |
| 20260507230047 | 65 | 128 | 5.0 | 16.0 | 0.00 | 0.00 | 0.00 | 33 | 1022.7 |
| 20260507225527 | 65 | 175 | 4.0 | 16.0 | 0.00 | 0.00 | 0.00 | 34 | 1022.7 |
| 20260507225057 | 65 | 177 | 2.0 | 18.0 | 0.00 | 0.00 | 0.00 | 33 | 1022.7 |
| 20260507224542 | 65 | 195 | 5.0 | 18.0 | 0.00 | 0.00 | 0.00 | 33 | 1022.8 |
| 20260507224027 | 66 | 189 | 3.0 | 12.0 | 0.00 | 0.00 | 0.00 | 33 | 1022.7 |
| 20260507223527 | 66 | 199 | 3.0 | 14.0 | 0.00 | 0.00 | 0.00 | 33 | 1022.7 |
| 20260507223039 | 65 | 136 | 3.0 | 15.0 | 0.00 | 0.00 | 0.00 | 32 | 1022.9 |